Location: Biharia
(46.4333°N, 22.8000°E)
Time: 22:54:32
(UTC+00:00)

Cosmos 2278 - Pass Details

Date: 16 October 2021
Orbit: 838 x 854 km, 71.1° (Epoch: 26 November)

Event Time Altitude Azimuth Distance (km) Brightness Sun altitude
Rises 17:45:17 0° 212° (SSW) 3,387 7.1 -22.2°
Reaches altitude 10° 17:47:44 10° 215° (SW) 2,458 6.4 -22.7°
Maximum altitude 17:53:21 68° 299° (WNW) 909 4.0 -23.6°
Drops below altitude 10° 17:59:03 10° 23° (NNE) 2,485 6.0 -24.6°
Sets 18:01:32 0° 26° (NNE) 3,426 6.8 -25.0°
